Change the Weather History Date:

Friday, March 15, 2013

  Actual Average Record
Temperature  
Mean Temperature 54 °F 46 °F  
Max Temperature 65 °F 59 °F 73 °F (1994)
Min Temperature 43 °F 34 °F 24 °F (2007)
Degree Days  
Heating Degree Days 11 19  
Month to date heating degree days 280 315  
Since 1 July heating degree days 3898 4198  
Cooling Degree Days 0 0  
Month to date cooling degree days 0 0  
Year to date cooling degree days 0 0  
Growing Degree Days 5 (Base 50)    
Moisture  
Dew Point 41 °F    
Average Humidity 60    
Maximum Humidity 80    
Minimum Humidity 40    
Precipitation  
Precipitation 0.00 in - 0.28 in (1995)
Month to date precipitation 0.14  
Year to date precipitation 0.62  
Snow  
Snow 0.00 in - - ()
Snow Depth 0.00 in    
Sea Level Pressure  
Sea Level Pressure 30.13 in    
Wind  
Wind Speed 7 mph (SW)    
Max Wind Speed 18 mph    
Max Gust Speed 23 mph    
Visibility 10 miles    
Events      
T = Trace of Precipitation, MM = Missing Value Source: NWS Daily Summary

Daily Weather History Graph

Daily Weather History Graph

Search for Another Location

Airport or City:

Trip Planner

Search our weather history database for the weather conditions in past years. The results will help you decide how hot, cold, wet, or windy it might be!

Date:

Astronomy

Mar. 15, 2013 Rise Set
Actual Time 7:08 AM PDT 7:02 PM PDT
Civil Twilight 6:38 AM PDT 7:32 PM PDT
Nautical Twilight 6:03 AM PDT 8:07 PM PDT
Astronomical Twilight 5:28 AM PDT 8:43 PM PDT
Moon 8:46 AM PDT (3/15) 11:38 PM PDT (3/15)
Length of Visible Light 12h 54m
Length of Day
11h 54m
Waxing Crescent, 16% of the Moon is Illuminated
Mar 15
Waxing Crescent
Mar 19
First Quarter
Mar 27
Full
Apr 2
Last Quarter
Apr 10
New

Hourly Weather History & Observations

Time (PDT) Temp. Windchill Dew Point Humidity Pressure Visibility Wind Dir Wind Speed Gust Speed Precip Events Conditions
12:53 AM 54.0 °F - 41.0 °F 62% 30.12 in 10.0 mi WSW 8.1 mph - N/A   Scattered Clouds
1:53 AM 54.0 °F - 41.0 °F 62% 30.12 in 10.0 mi SW 13.8 mph - N/A   Clear
2:53 AM 54.0 °F - 41.0 °F 62% 30.14 in 10.0 mi SW 6.9 mph - N/A   Clear
3:53 AM 51.1 °F - 42.1 °F 71% 30.13 in 10.0 mi SW 13.8 mph - N/A   Clear
4:53 AM 51.1 °F - 42.1 °F 71% 30.13 in 10.0 mi SW 13.8 mph - N/A   Clear
5:53 AM 51.1 °F - 42.1 °F 71% 30.13 in 10.0 mi WSW 4.6 mph - N/A   Clear
6:53 AM 48.0 °F - 42.1 °F 80% 30.15 in 10.0 mi Calm Calm - N/A   Clear
7:53 AM 50.0 °F - 42.1 °F 74% 30.16 in 10.0 mi Calm Calm - N/A   Clear
8:53 AM 52.0 °F - 43.0 °F 71% 30.18 in 10.0 mi SSW 6.9 mph - N/A   Clear
9:53 AM 55.0 °F - 44.1 °F 67% 30.18 in 10.0 mi SSW 4.6 mph - N/A   Clear
10:53 AM 60.1 °F - 42.1 °F 51% 30.18 in 10.0 mi SW 9.2 mph - N/A   Clear
11:53 AM 62.1 °F - 41.0 °F 46% 30.18 in 10.0 mi WSW 8.1 mph - N/A   Clear
12:53 PM 62.1 °F - 41.0 °F 46% 30.16 in 10.0 mi SW 9.2 mph - N/A   Clear
1:53 PM 63.0 °F - 42.1 °F 46% 30.15 in 10.0 mi WSW 9.2 mph - N/A   Partly Cloudy
2:53 PM 64.0 °F - 39.9 °F 41% 30.13 in 10.0 mi West 3.5 mph - N/A   Clear
3:53 PM 64.0 °F - 39.9 °F 41% 30.12 in 10.0 mi SSW 6.9 mph - N/A   Clear
4:53 PM 64.0 °F - 39.0 °F 40% 30.10 in 10.0 mi WSW 5.8 mph - N/A   Clear
5:53 PM 63.0 °F - 41.0 °F 45% 30.10 in 10.0 mi SW 8.1 mph - N/A   Clear
6:53 PM 61.0 °F - 41.0 °F 48% 30.09 in 10.0 mi South 6.9 mph - N/A   Clear
7:53 PM 55.9 °F - 41.0 °F 57% 30.10 in 10.0 mi SSW 4.6 mph - N/A   Clear
8:53 PM 52.0 °F - 41.0 °F 66% 30.10 in 10.0 mi Calm Calm - N/A   Clear
9:53 PM 50.0 °F - 39.9 °F 68% 30.10 in 10.0 mi NW 4.6 mph - N/A   Clear
10:53 PM 46.9 °F - 39.0 °F 74% 30.10 in 10.0 mi Calm Calm - N/A   Clear
11:53 PM 46.0 °F 43.9 °F 39.0 °F 76% 30.09 in 10.0 mi SW 4.6 mph - N/A   Partly Cloudy